Year,Month,Day,Hour,Minute,Value (Times are PST for windgust in km/hr)
2019,08,19,07,56,1.60
2019,08,19,08,28,1.60
2019,08,19,08,32,1.60
2019,08,19,08,37,1.60
2019,08,19,08,42,1.60
2019,08,19,08,44,1.60
2019,08,19,08,45,1.60
2019,08,19,08,46,1.60
2019,08,19,08,51,1.60
2019,08,19,08,54,1.60
2019,08,19,08,55,1.60
2019,08,19,08,56,6.40
2019,08,19,08,57,1.60
2019,08,19,09,00,1.60
2019,08,19,09,01,1.60
2019,08,19,09,03,3.20
2019,08,19,09,09,1.60
2019,08,19,09,10,1.60
2019,08,19,09,11,1.60
2019,08,19,09,14,1.60
2019,08,19,09,16,1.60
2019,08,19,09,25,1.60
2019,08,19,09,29,1.60
2019,08,19,09,45,1.60
2019,08,19,09,46,3.20
2019,08,19,09,48,8.10
2019,08,19,09,49,8.10
2019,08,19,09,50,8.10
2019,08,19,09,51,6.40
2019,08,19,09,52,9.60
2019,08,19,09,53,9.60
2019,08,19,09,54,8.10
2019,08,19,09,55,6.40
2019,08,19,09,56,8.10
2019,08,19,09,57,9.60
2019,08,19,09,58,11.30
2019,08,19,09,59,9.60
2019,08,19,10,00,8.10
2019,08,19,10,01,8.10
2019,08,19,10,02,9.60
2019,08,19,10,03,9.60
2019,08,19,10,04,1.60
2019,08,19,10,08,3.20
2019,08,19,10,09,3.20
2019,08,19,10,10,8.10
2019,08,19,10,11,1.60
2019,08,19,10,12,3.20
2019,08,19,10,16,1.60
2019,08,19,10,25,1.60
2019,08,19,10,26,1.60
2019,08,19,10,27,1.60
2019,08,19,10,29,6.40
2019,08,19,10,30,6.40
2019,08,19,10,31,6.40
2019,08,19,10,32,6.40
2019,08,19,10,35,8.10
2019,08,19,10,36,1.60
2019,08,19,10,37,1.60
2019,08,19,10,39,8.10
2019,08,19,10,40,9.60
2019,08,19,10,41,6.40
2019,08,19,10,42,8.10
2019,08,19,10,43,9.60
2019,08,19,10,44,8.10
2019,08,19,10,45,3.20
2019,08,19,10,46,1.60
2019,08,19,10,48,3.20
2019,08,19,10,50,1.60
2019,08,19,10,52,3.20
2019,08,19,10,53,6.40
2019,08,19,10,55,6.40
2019,08,19,10,56,3.20
2019,08,19,10,57,1.60
2019,08,19,10,58,8.10
2019,08,19,10,59,9.60
2019,08,19,11,00,8.10
2019,08,19,11,02,1.60
2019,08,19,11,03,8.10
2019,08,19,11,04,11.30
2019,08,19,11,05,14.50
2019,08,19,11,06,14.50
2019,08,19,11,07,11.30
2019,08,19,11,08,11.30
2019,08,19,11,09,9.60
2019,08,19,11,10,14.50
2019,08,19,11,11,9.60
2019,08,19,11,12,11.30
2019,08,19,11,13,11.30
2019,08,19,11,14,11.30
2019,08,19,11,15,16.10
2019,08,19,11,16,11.30
2019,08,19,11,17,12.90
2019,08,19,11,18,12.90
2019,08,19,11,19,12.90
2019,08,19,11,20,11.30
2019,08,19,11,21,14.50
2019,08,19,11,22,12.90
2019,08,19,11,23,14.50
2019,08,19,11,24,8.10
2019,08,19,11,25,11.30
2019,08,19,11,26,4.80
2019,08,19,11,27,12.90
2019,08,19,11,28,12.90
2019,08,19,11,29,14.50
2019,08,19,11,30,16.10
2019,08,19,11,31,16.10
2019,08,19,11,32,11.30
2019,08,19,11,33,12.90
2019,08,19,11,34,12.90
2019,08,19,11,35,11.30
2019,08,19,11,36,6.40
2019,08,19,11,37,4.80
2019,08,19,11,38,12.90
2019,08,19,11,39,12.90
2019,08,19,11,40,14.50
2019,08,19,11,41,12.90
2019,08,19,11,42,8.10
2019,08,19,11,43,8.10
2019,08,19,11,44,11.30
2019,08,19,11,45,8.10
2019,08,19,11,46,12.90
2019,08,19,11,47,12.90
2019,08,19,11,48,16.10
2019,08,19,11,49,12.90
2019,08,19,11,50,12.90
2019,08,19,11,51,11.30
2019,08,19,11,52,12.90
2019,08,19,11,53,14.50
2019,08,19,11,54,8.10
2019,08,19,11,55,11.30
2019,08,19,11,56,11.30
2019,08,19,11,57,9.60
2019,08,19,11,58,14.50
2019,08,19,11,59,9.60
2019,08,19,12,00,12.90
2019,08,19,12,01,11.30
2019,08,19,12,02,11.30
2019,08,19,12,03,9.60
2019,08,19,12,04,9.60
2019,08,19,12,05,11.30
2019,08,19,12,06,9.60
2019,08,19,12,07,11.30
2019,08,19,12,08,12.90
2019,08,19,12,09,11.30
2019,08,19,12,10,11.30
2019,08,19,12,11,12.90
2019,08,19,12,12,12.90
2019,08,19,12,13,9.60
2019,08,19,12,14,14.50
2019,08,19,12,15,11.30
2019,08,19,12,16,6.40
2019,08,19,12,17,9.60
2019,08,19,12,18,8.10
2019,08,19,12,19,11.30
2019,08,19,12,20,8.10
2019,08,19,12,21,6.40
2019,08,19,12,22,3.20
2019,08,19,12,23,3.20
2019,08,19,12,24,6.40
2019,08,19,12,25,8.10
2019,08,19,12,26,9.60
2019,08,19,12,27,11.30
2019,08,19,12,28,6.40
2019,08,19,12,29,11.30
2019,08,19,12,30,6.40
2019,08,19,12,31,11.30
2019,08,19,12,32,9.60
2019,08,19,12,33,6.40
2019,08,19,12,34,8.10
2019,08,19,12,35,6.40
2019,08,19,12,36,6.40
2019,08,19,12,37,11.30
2019,08,19,12,38,6.40
2019,08,19,12,39,6.40
2019,08,19,12,40,9.60
2019,08,19,12,41,8.10
2019,08,19,12,42,1.60
2019,08,19,12,43,4.80
2019,08,19,12,44,3.20
2019,08,19,12,45,8.10
2019,08,19,12,46,4.80
2019,08,19,12,47,1.60
2019,08,19,12,48,3.20
2019,08,19,12,49,3.20
2019,08,19,12,50,6.40
2019,08,19,12,51,8.10
2019,08,19,12,52,8.10
2019,08,19,12,53,8.10
2019,08,19,12,54,6.40
2019,08,19,12,55,4.80
2019,08,19,12,56,6.40
2019,08,19,12,57,9.60
2019,08,19,12,58,9.60
2019,08,19,12,59,9.60
2019,08,19,13,00,8.10
2019,08,19,13,01,6.40
2019,08,19,13,02,8.10
2019,08,19,13,03,8.10
2019,08,19,13,04,8.10
2019,08,19,13,05,8.10
2019,08,19,13,06,8.10
2019,08,19,13,07,6.40
2019,08,19,13,08,6.40
2019,08,19,13,09,9.60
2019,08,19,13,10,9.60
2019,08,19,13,11,11.30
2019,08,19,13,12,11.30
2019,08,19,13,13,8.10
2019,08,19,13,14,3.20
2019,08,19,13,15,1.60
2019,08,19,13,16,9.60
2019,08,19,13,17,6.40
2019,08,19,13,18,9.60
2019,08,19,13,19,9.60
2019,08,19,13,20,11.30
2019,08,19,13,21,9.60
2019,08,19,13,22,1.60
2019,08,19,13,23,8.10
2019,08,19,13,24,8.10
2019,08,19,13,25,1.60
2019,08,19,13,26,3.20
2019,08,19,13,27,8.10
2019,08,19,13,28,11.30
2019,08,19,13,29,11.30
2019,08,19,13,30,12.90
2019,08,19,13,31,12.90
2019,08,19,13,32,9.60
2019,08,19,13,33,4.80
2019,08,19,13,34,6.40
2019,08,19,13,35,9.60
2019,08,19,13,36,8.10
2019,08,19,13,37,8.10
2019,08,19,13,38,9.60
2019,08,19,13,39,6.40
2019,08,19,13,40,11.30
2019,08,19,13,41,6.40
2019,08,19,13,42,12.90
2019,08,19,13,43,11.30
2019,08,19,13,44,14.50
2019,08,19,13,45,9.60
2019,08,19,13,46,12.90
2019,08,19,13,47,12.90
2019,08,19,13,48,14.50
2019,08,19,13,49,11.30
2019,08,19,13,50,12.90
2019,08,19,13,51,9.60
2019,08,19,13,52,14.50
2019,08,19,13,53,11.30
2019,08,19,13,54,12.90
2019,08,19,13,55,11.30
2019,08,19,13,56,9.60
2019,08,19,13,57,9.60
2019,08,19,13,58,9.60
2019,08,19,13,59,8.10
2019,08,19,14,00,11.30
2019,08,19,14,01,8.10
2019,08,19,14,02,11.30
2019,08,19,14,03,11.30
2019,08,19,14,04,8.10
2019,08,19,14,05,12.90
2019,08,19,14,06,14.50
2019,08,19,14,07,11.30
2019,08,19,14,08,9.60
2019,08,19,14,09,11.30
2019,08,19,14,10,11.30
2019,08,19,14,11,11.30
2019,08,19,14,12,9.60
2019,08,19,14,13,11.30
2019,08,19,14,14,11.30
2019,08,19,14,15,16.10
2019,08,19,14,16,16.10
2019,08,19,14,17,14.50
2019,08,19,14,18,11.30
2019,08,19,14,19,9.60
2019,08,19,14,20,11.30
2019,08,19,14,21,16.10
2019,08,19,14,22,16.10
2019,08,19,14,23,12.90
2019,08,19,14,24,11.30
2019,08,19,14,25,12.90
2019,08,19,14,26,8.10
2019,08,19,14,27,14.50
2019,08,19,14,28,12.90
2019,08,19,14,29,11.30
2019,08,19,14,30,11.30
2019,08,19,14,31,11.30
2019,08,19,14,32,12.90
2019,08,19,14,33,14.50
2019,08,19,14,34,11.30
2019,08,19,14,35,9.60
2019,08,19,14,36,12.90
2019,08,19,14,37,11.30
2019,08,19,14,38,12.90
2019,08,19,14,39,11.30
2019,08,19,14,40,11.30
2019,08,19,14,41,11.30
2019,08,19,14,42,11.30
2019,08,19,14,43,8.10
2019,08,19,14,44,9.60
2019,08,19,14,45,8.10
2019,08,19,14,46,11.30
2019,08,19,14,47,14.50
2019,08,19,14,48,14.50
2019,08,19,14,49,9.60
2019,08,19,14,50,9.60
2019,08,19,14,51,11.30
2019,08,19,14,52,11.30
2019,08,19,14,53,12.90
2019,08,19,14,54,9.60
2019,08,19,14,55,14.50
2019,08,19,14,56,12.90
2019,08,19,14,57,22.50
2019,08,19,14,58,17.70
2019,08,19,14,59,11.30
2019,08,19,15,00,14.50
2019,08,19,15,01,11.30
2019,08,19,15,02,12.90
2019,08,19,15,03,16.10
2019,08,19,15,04,14.50
2019,08,19,15,05,11.30
2019,08,19,15,06,12.90
2019,08,19,15,07,16.10
2019,08,19,15,08,14.50
2019,08,19,15,09,14.50
2019,08,19,15,10,11.30
2019,08,19,15,11,12.90
2019,08,19,15,12,11.30
2019,08,19,15,13,16.10
2019,08,19,15,14,16.10
2019,08,19,15,15,12.90
2019,08,19,15,16,12.90
2019,08,19,15,17,11.30
2019,08,19,15,18,12.90
2019,08,19,15,19,12.90
2019,08,19,15,20,12.90
2019,08,19,15,21,14.50
2019,08,19,15,22,14.50
2019,08,19,15,23,12.90
2019,08,19,15,24,11.30
2019,08,19,15,25,16.10
2019,08,19,15,26,12.90
2019,08,19,15,27,14.50
2019,08,19,15,28,12.90
2019,08,19,15,29,9.60
2019,08,19,15,30,11.30
2019,08,19,15,31,11.30
2019,08,19,15,32,11.30
2019,08,19,15,33,8.10
2019,08,19,15,34,3.20
2019,08,19,15,35,6.40
2019,08,19,15,36,8.10
2019,08,19,15,37,6.40
2019,08,19,15,38,8.10
2019,08,19,15,39,6.40
2019,08,19,15,40,8.10
2019,08,19,15,41,4.80
2019,08,19,15,42,8.10
2019,08,19,15,43,12.90
2019,08,19,15,44,11.30
2019,08,19,15,45,9.60
2019,08,19,15,46,19.30
2019,08,19,15,47,16.10
2019,08,19,15,48,14.50
2019,08,19,15,49,12.90
2019,08,19,15,50,12.90
2019,08,19,15,51,8.10
2019,08,19,15,52,14.50
2019,08,19,15,53,11.30
2019,08,19,15,54,16.10
2019,08,19,15,55,14.50
2019,08,19,15,56,14.50
2019,08,19,15,57,12.90
2019,08,19,15,58,12.90
2019,08,19,15,59,9.60
2019,08,19,16,00,12.90
2019,08,19,16,01,12.90
2019,08,19,16,02,14.50
2019,08,19,16,03,12.90
2019,08,19,16,04,14.50
2019,08,19,16,05,14.50
2019,08,19,16,06,14.50
2019,08,19,16,07,19.30
2019,08,19,16,08,17.70
2019,08,19,16,09,16.10
2019,08,19,16,10,12.90
2019,08,19,16,11,11.30
2019,08,19,16,12,12.90
2019,08,19,16,13,16.10
2019,08,19,16,14,11.30
2019,08,19,16,15,16.10
2019,08,19,16,16,14.50
2019,08,19,16,17,8.10
2019,08,19,16,18,11.30
2019,08,19,16,19,14.50
2019,08,19,16,20,11.30
2019,08,19,16,21,11.30
2019,08,19,16,22,9.60
2019,08,19,16,23,14.50
2019,08,19,16,24,11.30
2019,08,19,16,25,12.90
2019,08,19,16,26,14.50
2019,08,19,16,27,9.60
2019,08,19,16,28,9.60
2019,08,19,16,29,8.10
2019,08,19,16,30,4.80
2019,08,19,16,31,9.60
2019,08,19,16,32,12.90
2019,08,19,16,33,14.50
2019,08,19,16,34,11.30
2019,08,19,16,35,16.10
2019,08,19,16,36,12.90
2019,08,19,16,37,12.90
2019,08,19,16,38,11.30
2019,08,19,16,39,16.10
2019,08,19,16,40,11.30
2019,08,19,16,41,14.50
2019,08,19,16,42,14.50
2019,08,19,16,43,14.50
2019,08,19,16,44,12.90
2019,08,19,16,45,12.90
2019,08,19,16,46,12.90
2019,08,19,16,47,11.30
2019,08,19,16,48,12.90
2019,08,19,16,49,11.30
2019,08,19,16,50,12.90
2019,08,19,16,51,11.30
2019,08,19,16,52,12.90
2019,08,19,16,53,12.90
2019,08,19,16,54,12.90
2019,08,19,16,55,11.30
2019,08,19,16,56,12.90
2019,08,19,16,57,14.50
2019,08,19,16,58,9.60
2019,08,19,16,59,14.50
2019,08,19,17,00,14.50
2019,08,19,17,01,12.90
2019,08,19,17,02,8.10
2019,08,19,17,03,11.30
2019,08,19,17,04,16.10
2019,08,19,17,05,14.50
2019,08,19,17,06,11.30
2019,08,19,17,07,8.10
2019,08,19,17,08,11.30
2019,08,19,17,09,11.30
2019,08,19,17,10,16.10
2019,08,19,17,11,12.90
2019,08,19,17,12,14.50
2019,08,19,17,13,11.30
2019,08,19,17,14,11.30
2019,08,19,17,15,12.90
2019,08,19,17,16,12.90
2019,08,19,17,17,12.90
2019,08,19,17,18,16.10
2019,08,19,17,19,16.10
2019,08,19,17,20,14.50
2019,08,19,17,21,12.90
2019,08,19,17,22,12.90
2019,08,19,17,23,14.50
2019,08,19,17,24,12.90
2019,08,19,17,25,11.30
2019,08,19,17,26,12.90
2019,08,19,17,27,11.30
2019,08,19,17,28,8.10
2019,08,19,17,29,9.60
2019,08,19,17,30,6.40
2019,08,19,17,31,8.10
2019,08,19,17,32,11.30
2019,08,19,17,33,11.30
2019,08,19,17,34,9.60
2019,08,19,17,35,11.30
2019,08,19,17,36,11.30
2019,08,19,17,37,12.90
2019,08,19,17,38,11.30
2019,08,19,17,39,6.40
2019,08,19,17,40,11.30
2019,08,19,17,41,9.60
2019,08,19,17,42,9.60
2019,08,19,17,43,12.90
2019,08,19,17,44,9.60
2019,08,19,17,45,9.60
2019,08,19,17,46,11.30
2019,08,19,17,47,8.10
2019,08,19,17,48,11.30
2019,08,19,17,49,8.10
2019,08,19,17,50,9.60
2019,08,19,17,51,9.60
2019,08,19,17,52,9.60
2019,08,19,17,53,9.60
2019,08,19,17,54,9.60
2019,08,19,17,55,8.10
2019,08,19,17,56,9.60
2019,08,19,17,57,11.30
2019,08,19,17,58,11.30
2019,08,19,17,59,9.60
2019,08,19,18,00,11.30
2019,08,19,18,01,11.30
2019,08,19,18,02,11.30
2019,08,19,18,03,11.30
2019,08,19,18,04,11.30
2019,08,19,18,05,11.30
2019,08,19,18,06,4.80
2019,08,19,18,07,11.30
2019,08,19,18,08,9.60
2019,08,19,18,09,12.90
2019,08,19,18,10,9.60
2019,08,19,18,11,12.90
2019,08,19,18,12,11.30
2019,08,19,18,13,12.90
2019,08,19,18,14,11.30
2019,08,19,18,15,8.10
2019,08,19,18,16,8.10
2019,08,19,18,17,9.60
2019,08,19,18,18,8.10
2019,08,19,18,19,8.10
2019,08,19,18,20,8.10
2019,08,19,18,21,4.80
2019,08,19,18,22,4.80
2019,08,19,18,23,4.80
2019,08,19,18,24,8.10
2019,08,19,18,25,9.60
2019,08,19,18,26,4.80
2019,08,19,18,27,4.80
2019,08,19,18,28,4.80
2019,08,19,18,30,1.60
2019,08,19,18,31,4.80
2019,08,19,18,32,8.10
2019,08,19,18,33,6.40
2019,08,19,18,34,6.40
2019,08,19,18,35,6.40
2019,08,19,18,36,1.60
2019,08,19,18,37,1.60
2019,08,19,18,38,3.20
2019,08,19,18,40,1.60
2019,08,19,18,41,6.40
2019,08,19,18,42,1.60
2019,08,19,18,43,3.20
2019,08,19,18,44,3.20
2019,08,19,18,45,1.60
2019,08,19,18,46,1.60
2019,08,19,18,47,1.60
2019,08,19,18,48,3.20
2019,08,19,18,49,1.60
2019,08,19,18,50,4.80
2019,08,19,18,51,4.80
2019,08,19,18,54,1.60
2019,08,19,18,57,1.60
2019,08,19,18,58,1.60
2019,08,19,18,59,3.20
2019,08,19,19,00,3.20
2019,08,19,19,01,1.60
2019,08,19,19,02,1.60
2019,08,19,19,03,1.60
2019,08,19,19,04,1.60
2019,08,19,19,05,1.60
2019,08,19,19,07,1.60
2019,08,19,19,09,1.60
2019,08,19,19,13,1.60
2019,08,19,19,14,3.20
2019,08,19,19,15,3.20
2019,08,19,19,19,1.60
2019,08,19,19,20,1.60
2019,08,19,19,22,1.60
2019,08,19,19,25,1.60
2019,08,19,19,36,1.60
2019,08,19,19,42,1.60
2019,08,19,19,43,1.60
2019,08,19,19,58,1.60
2019,08,19,20,49,1.60
2019,08,19,20,52,1.60
2019,08,19,21,11,1.60
2019,08,19,22,49,1.60
2019,08,19,23,06,1.60
2019,08,19,23,08,1.60
2019,08,19,23,09,3.20
2019,08,19,23,14,1.60
2019,08,19,23,19,1.60
2019,08,19,23,26,3.20
2019,08,19,23,41,1.60
